Dewpoint
57 56 54 53 52 52 51 51 51 50 49 48 47 46 45 44 43 41 40 38 38 37 37 36 35 33 33 33 33 33 33 35 37 38 39 38 38 38 37 36 35 35 35 34 31 29 27 26 27 30 33 33 31 29 28 24 24 24 26 28 26 25 25 25 25 24 24 24 25
56 55 54 53 53 52 52 51 51 50 48 48 47 47 46 45 43 41 39 38 37 37 37 36 33 32 32 34 36 37 37 36 38 40 40 39 38 37 36 36 35 34 34 33 33 31 29 28 30 34 36 33 32 29 26 23 24 25 25 25 25 25 25 24 24 24 24 24 25
56 55 54 53 53 52 52 51 50 49 48 47 48 47 47 46 44 42 39 37 37 38 38 33 32 33 35 38 40 41 41 40 40 40 40 39 38 38 37 37 36 34 32 31 30 30 29 28 30 33 32 28 27 25 24 24 30 28 24 23 23 24 23 23 23 23 23 24 24
55 54 54 53 53 52 52 52 50 49 48 48 47 47 47 46 44 42 39 37 38 37 34 33 34 37 40 41 41 42 42 42 41 40 40 39 38 38 38 37 37 34 31 28 29 29 28 29 31 32 31 26 25 24 25 25 29 27 24 23 23 23 22 22 23 23 23 23 23
55 54 54 54 53 52 52 52 51 49 48 48 47 47 46 45 44 42 40 39 38 36 35 39 37 37 39 41 41 41 41 41 41 41 40 39 39 39 38 38 37 33 30 29 28 27 28 31 30 30 29 27 27 26 25 24 25 25 24 24 23 23 22 22 23 23 24 24 24
55 54 54 54 53 53 53 53 51 50 49 48 47 46 45 44 43 42 40 39 38 39 40 40 37 38 39 41 41 41 41 41 41 41 40 39 39 39 39 38 36 33 30 29 28 27 28 29 27 27 28 30 30 26 23 24 24 23 23 23 23 23 23 23 24 24 24 24 24
54 54 54 54 53 53 53 53 51 50 48 47 47 45 44 44 43 42 41 41 41 41 40 39 39 39 40 40 40 40 41 41 41 40 40 39 39 38 38 38 34 32 29 28 29 29 27 26 29 29 29 30 26 24 22 23 23 23 22 22 24 24 24 24 24 24 24 23 23
54 54 54 54 53 53 53 52 51 49 48 47 46 45 45 44 43 42 41 41 41 40 40 41 41 41 41 40 39 39 39 40 40 40 39 39 38 38 36 35 32 29 29 29 30 30 28 27 30 29 26 25 26 24 22 22 22 21 22 22 23 24 24 24 24 24 23 22 22
54 54 54 53 53 53 52 51 50 49 48 47 46 46 45 44 42 42 42 42 40 39 38 40 40 41 40 40 39 39 39 39 39 39 38 38 36 35 34 32 29 29 29 30 30 29 27 27 27 26 25 28 29 25 21 20 20 20 22 23 24 24 24 24 24 24 23 22 22
53 53 53 53 52 51 51 50 49 48 48 47 47 46 45 43 42 42 42 42 39 38 38 38 40 40 40 40 40 40 40 39 39 38 36 35 33 30 29 27 27 28 30 31 29 27 26 27 25 24 23 24 25 22 19 19 20 21 22 23 24 24 24 24 24 24 24 23 22
52 52 52 52 51 50 50 48 48 47 47 47 46 45 43 42 42 41 41 40 38 37 37 38 39 40 41 40 40 40 40 40 39 37 34 32 29 27 25 25 26 28 29 29 27 27 27 29 28 24 20 21 20 20 19 20 21 22 23 24 24 24 24 24 24 24 24 23 23
51 51 50 50 49 48 48 47 47 47 46 45 44 43 42 42 41 40 39 38 38 37 37 38 41 42 42 41 40 40 40 39 38 35 33 29 26 25 24 24 26 27 28 27 27 28 28 26 23 21 20 19 19 20 20 21 23 24 24 25 25 25 25 24 24 24 24 23 23
49 49 48 48 47 47 47 46 46 45 44 43 42 42 41 41 41 40 39 38 38 38 38 40 41 42 42 42 41 40 39 38 36 34 32 29 26 25 24 25 26 27 27 28 28 28 26 24 21 20 20 20 21 22 22 23 24 24 25 25 25 24 24 23 22 22 22 23 23
47 47 47 46 46 46 45 45 44 44 43 42 41 41 41 41 41 40 39 39 38 38 39 40 42 42 42 41 40 40 38 38 35 33 31 29 27 25 24 25 26 27 28 28 28 28 26 25 24 23 22 22 22 23 23 23 24 24 24 24 24 23 23 22 21 21 22 22 22
46 46 45 45 44 44 44 44 43 43 42 42 41 41 41 41 41 41 40 39 39 40 41 41 42 42 42 40 40 39 38 37 35 33 32 30 28 26 26 26 28 29 29 29 30 29 29 28 27 26 25 24 23 22 22 22 22 23 23 23 23 22 21 20 20 20 21 21 22
45 44 44 43 43 43 43 43 42 42 42 42 41 41 42 42 42 41 41 40 41 41 42 42 42 42 41 40 39 38 37 36 35 34 33 32 29 28 28 29 29 30 30 31 32 32 31 30 29 28 26 24 23 22 22 22 22 23 23 23 22 21 20 20 20 20 20 21 21
44 43 43 43 43 42 42 42 42 42 42 42 42 42 42 42 42 42 41 41 41 42 42 42 42 42 41 40 39 37 36 35 35 34 34 33 31 30 30 31 31 32 32 33 33 32 31 30 29 27 25 24 23 23 22 22 23 23 23 22 21 20 20 22 21 20 20 20 22
43 42 42 42 42 42 42 42 42 42 42 42 42 42 42 42 42 42 41 41 41 41 41 41 41 41 40 39 38 37 36 35 35 35 35 34 33 33 33 33 33 34 34 33 33 32 30 29 27 25 24 24 23 22 22 22 22 22 21 21 20 20 20 23 22 21 20 20 22
42 42 42 42 42 42 41 42 42 42 42 42 42 42 42 42 42 41 41 41 41 41 41 40 40 39 38 37 37 37 37 36 35 35 35 35 34 34 35 35 35 35 34 33 32 31 29 26 24 23 23 22 22 22 22 22 22 22 21 21 20 20 20 21 22 21 20 20 21
42 42 42 42 41 41 41 42 42 42 42 42 42 42 42 41 41 41 41 41 41 40 40 39 39 38 37 36 36 36 37 38 36 36 36 36 36 36 36 35 35 34 33 33 31 28 26 23 22 21 21 22 23 23 24 24 24 24 23 22 22 21 21 21 21 21 21 20 20
42 42 42 42 41 41 42 42 42 42 42 42 42 42 41 41 41 40 40 40 40 39 38 38 38 37 37 36 36 37 38 38 38 37 37 36 36 36 35 35 34 33 32 30 27 25 23 22 22 23 24 24 25 26 26 27 26 25 24 24 23 23 22 22 21 21 21 21 20
42 42 42 42 41 42 42 42 42 42 42 42 42 41 41 40 40 40 39 39 38 38 38 38 38 37 37 38 38 38 38 39 38 37 37 36 36 35 35 34 33 30 29 26 24 24 23 24 24 25 26 27 27 28 28 27 26 25 24 24 24 24 24 23 23 22 22 21 21
42 42 42 42 42 42 42 42 42 42 42 42 41 40 40 39 39 38 38 38 38 38 38 38 38 38 38 38 38 38 38 38 37 36 35 35 34 33 33 33 30 28 26 25 25 25 25 26 27 27 28 29 28 28 28 27 26 25 25 25 24 24 24 24 24 24 23 23 22
42 42 42 42 42 42 42 42 42 41 41 41 40 39 38 38 38 37 37 37 37 37 37 38 38 39 39 38 38 38 37 36 35 34 33 33 32 32 31 30 28 27 26 26 28 29 29 29 29 29 29 29 28 27 26 26 25 25 25 25 25 25 24 24 24 24 24 24 24
42 42 42 42 42 42 42 41 41 41 41 40 39 38 38 37 36 36 36 36 36 37 38 38 38 38 38 38 37 36 35 34 33 32 31 31 30 30 30 29 28 28 29 31 33 33 33 32 31 30 29 28 27 27 26 26 26 25 25 25 25 25 24 24 24 24 24 24 24
42 42 42 42 42 42 41 41 41 41 40 39 38 38 37 36 36 36 36 37 37 38 38 38 38 38 38 37 36 35 34 33 32 31 30 30 30 30 30 29 29 30 32 33 35 35 35 35 33 31 29 28 27 27 27 27 26 26 25 25 25 25 24 24 24 24 24 24 24
42 42 42 42 42 42 42 42 41 41 40 39 38 37 37 36 36 37 37 37 38 38 38 38 38 38 37 36 35 34 34 34 32 31 30 30 30 30 30 30 31 32 33 35 35 36 36 36 35 33 31 29 28 28 28 28 27 26 26 25 25 24 24 24 24 24 24 24 23
42 42 42 42 42 42 42 42 41 41 40 39 38 38 37 37 37 37 38 38 38 38 38 38 37 37 37 36 34 33 33 33 33 32 32 31 31 31 31 32 33 34 35 36 37 37 37 37 36 35 33 32 31 30 29 28 27 26 26 25 24 24 24 24 24 23 23 22 22
42 42 42 42 42 42 42 42 41 40 39 39 38 38 38 38 38 38 38 38 37 37 37 37 37 37 36 35 34 33 33 33 33 33 33 32 32 32 33 33 34 35 36 38 38 38 38 38 37 37 35 33 31 29 28 26 26 25 25 24 24 24 24 23 23 22 22 21 21
42 42 42 42 42 41 41 41 40 40 39 38 38 38 38 38 37 37 37 37 37 37 37 37 36 35 35 34 33 33 33 33 32 32 32 31 32 33 33 34 34 36 37 38 38 38 38 38 38 37 35 33 29 27 25 25 24 24 24 24 24 23 23 22 22 21 21 20 20
41 41 41 40 40 40 40 40 39 39 38 38 38 37 37 37 37 37 37 36 36 36 36 35 35 34 33 33 33 33 33 33 32 32 32 32 33 33 33 33 34 35 36 37 36 36 36 37 36 35 33 31 27 25 24 24 24 24 23 23 23 22 22 21 20 20 20 20 20
40 39 39 39 39 38 38 38 38 38 38 37 37 36 36 36 36 36 36 36 36 35 35 34 33 33 33 33 33 33 33 33 33 33 33 33 34 33 33 33 34 34 35 35 34 34 34 35 34 33 32 30 27 24 23 24 23 23 23 22 22 21 21 20 20 20 20 20 20
38 38 38 38 37 37 37 37 37 36 36 36 35 35 35 35 35 35 35 35 35 34 34 33 33 33 33 33 33 33 33 33 33 33 34 34 34 35 34 34 34 34 34 34 33 33 33 34 34 33 32 30 27 24 23 23 23 22 22 21 21 21 20 20 20 20 20 19 19
37 37 36 36 36 35 35 35 35 35 35 34 34 34 35 35 35 35 35 35 35 34 34 33 33 33 33 33 33 33 33 33 33 33 34 34 35 35 34 34 34 34 35 35 34 34 35 35 35 34 33 31 26 24 23 22 22 22 21 21 21 20 20 20 20 20 19 19 18
36 35 35 34 34 34 34 34 34 34 34 34 34 34 34 34 34 34 34 35 34 34 34 34 34 33 33 33 33 33 33 32 32 33 33 34 34 34 34 34 35 36 36 36 36 35 35 35 34 33 32 29 25 23 22 22 22 21 21 21 21 21 20 20 20 20 19 19 18
34 34 33 33 33 33 33 33 33 33 33 33 34 34 34 34 34 34 35 35 34 34 33 33 33 33 33 33 33 33 32 32 32 32 33 33 33 34 34 34 35 36 37 36 35 35 35 34 34 33 30 27 24 23 22 22 22 21 21 21 21 20 20 20 20 20 19 18 18
34 33 33 33 33 33 33 33 33 33 33 33 33 34 34 34 34 34 34 34 33 33 33 33 33 33 33 33 33 33 33 33 32 32 32 33 33 33 33 33 34 35 36 36 35 34 34 34 33 31 29 24 23 22 22 22 21 21 21 21 20 20 20 19 19 18 18 18 19
34 34 34 33 33 34 34 34 33 33 33 33 33 33 34 34 33 34 34 34 33 33 33 33 33 33 33 33 33 33 33 33 33 33 33 33 33 33 33 33 33 33 35 35 34 33 33 33 32 30 28 24 23 22 22 21 21 21 20 20 20 20 19 18 17 17 17 18 24
35 35 35 34 34 34 34 33 33 33 33 33 33 33 33 33 33 34 34 34 33 33 33 33 33 33 33 33 33 33 33 34 34 33 33 33 33 33 33 33 32 32 33 34 33 32 31 31 31 30 29 25 23 22 22 21 21 20 20 20 19 19 18 17 16 16 16 18 26
36 35 35 35 34 34 33 33 33 33 33 33 33 33 33 33 34 34 34 34 34 33 33 33 33 34 34 34 34 33 33 33 34 33 33 33 33 33 33 32 31 31 32 33 31 30 29 29 30 31 29 25 23 22 22 21 20 20 20 18 18 18 18 17 15 15 15 16 22
35 35 34 34 34 33 33 33 33 33 33 33 33 33 33 34 34 34 34 34 34 34 34 34 34 34 34 34 33 33 33 33 33 33 33 33 33 33 33 32 29 28 28 29 29 28 27 28 30 31 30 25 22 21 21 21 21 20 19 18 16 16 16 16 15 15 15 15 16